Flag for Bahamas Weather past 2 weeks in Nassau, Bahamas

Now
77 °F

Cloudy.


Feels Like: 78 °F
Forecast: 77 / 81 °F
Wind: 6 mph from Southeast

Location: Nassau Airport

Current Time: Oct 24, 2014 at 10:58:41 AM

Latest Report: Oct 24, 2014 at 10:00 AM


Visibility: N/A

Pressure: 29.86 "Hg

Humidity: 89%

Dew point: 73 °F

Location of NassauLocation

Historic Weather in Nassau — Graph

°F

Nassau temperature yesterday

Maximum temperature yesterday: 79 °F (at 5:00 PM)
Minimum temperature yesterday: 73 °F (at 9:00 AM)
Average temperature yesterday: 76 °F

Past Weeks' High & Low Weather Summary

 TemperatureHumidityPressure
High88 °F (Oct 10, 2:00 PM)100% (Oct 11, 11:00 AM)30.14 "Hg (Oct 11, 11:00 AM)
Low72 °F (Oct 18, 5:00 AM)51% (Oct 18, 12:00 PM)29.85 "Hg (Oct 24, 5:00 AM)
Average80 °F77%29.97 "Hg
* Reported Oct 9 10:00 AM — Oct 24 10:00 AM, Nassau, Weather by CustomWeather, © 2014

Note: Actual official high and low records may vary slightly from our data, if they occured in-between our weather recording intervals... More about our weather records

Advertising

Nassau weather history for previous 24 hours

 ConditionsComfort  
Time TempWeatherWind HumidityBarometerVisibility
10:00 AM
Oct 24
77 °FCloudy.6 mph89%29.86 "HgN/A
9:00 AM77 °FRain. Mostly cloudy.9 mph89%29.85 "HgN/A
8:00 AM75 °FLight rain. Overcast.10 mph100%29.85 "HgN/A
7:00 AM75 °FRain. Mostly cloudy.6 mph94%29.86 "Hg6 mi
6:00 AM75 °FRain. Mostly cloudy.8 mph89%29.85 "HgN/A
5:00 AM75 °FRain. Mostly cloudy.5 mph100%29.85 "HgN/A
3:00 AM75 °FRain. Mostly cloudy.1 mph100%29.87 "Hg4 mi
2:00 AM77 °FRain. Mostly cloudy.1 mph94%29.88 "HgN/A
1:00 AM77 °FLight rain. Mostly cloudy.2 mph89%29.89 "HgN/A
12:00 AM77 °FSprinkles. Mostly cloudy.3 mph89%29.91 "HgN/A
11:00 PM
Oct 23
77 °FSprinkles. Mostly cloudy.N/A94%29.92 "HgN/A
10:00 PM77 °FMostly cloudy.7 mph83%29.93 "HgN/A
9:00 PM77 °FOvercast.5 mph83%29.91 "HgN/A
8:00 PM77 °FOvercast.3 mph94%29.89 "HgN/A
7:00 PM77 °FCloudy.5 mph83%29.89 "HgN/A
6:00 PM77 °FCloudy.No wind83%29.88 "HgN/A
5:00 PM79 °FBroken clouds.5 mph84%29.87 "HgN/A
4:00 PM77 °FBroken clouds.5 mph83%29.87 "HgN/A
3:00 PM77 °FRain. Cloudy.7 mph83%29.89 "HgN/A
2:00 PM77 °FLight rain. Cloudy.5 mph100%29.91 "HgN/A
1:00 PM73 °FLight rain. More clouds than sun.7 mph94%29.96 "Hg6 mi
12:00 PM73 °FLight rain. More clouds than sun.3 mph94%29.96 "Hg6 mi
11:00 AM73 °FLight rain. More clouds than sun.3 mph100%29.97 "Hg6 mi
10:00 AM73 °FRain. Cloudy.No wind89%29.97 "Hg2 mi
Weather by CustomWeather, © 2014

See weather overviewHow to use our weather pages